SCP
-0 -0 0 0 0 0 0 -0 0 -0 0 0 -0 0 0 0 0 0 0 0 0 -0 -0 -0 -0 -0 -0 -0 -0 -0 -0 -0 -0 -0 -0 -0 -0 -0 -0 0 0 0 0 0 -0 -0 -0 -0 -0
-0 -0 0 0 0 -0 0 0 0 0 -0 -0 0 0 0 0 0 0 0 0 0 0 0 -0 -0 -0 -0 -0 -0 -0 0 -0 -0 -0 -0 -0 -0 -0 -0 -0 0 0 0 0 0 0 0 -0 -0
0 0 0 0 0 -0 0 0 -0 -0 -0 -0 0 0 0 0 0 0 0 0 -0 0 0 0 0 0 -0 -0 -0 -0 -0 -0 -0 -0 0 0 -0 -0 -0 -0 0 0 0 0 0 0 0 0 0
0 0 0 0 0 0 0 0 0 -0 0 0 0 0 0 0 0 0 -0 -0 -0 0 0 0 0 -0 -0 -0 -0 -0 -0 0 0 0 0 0 -0 -0 -0 -0 0 0 0 0 0 0 0 0 0
0 0 0 0 0 0 0 0 0 -0 0 -0 0 0 0 0 0 0 -0 -0 -0 -0 0 -0 0 0 -0 -0 -0 0 0 0 0 0 0 0 0 0 -0 0 -0 -0 0 0 0 0 0 0 0
0 0 0 0 0 0 0 0 0 0 0 0 0 0 0 0 0 0 -0 -0 -0 -0 -0 -0 0 0 0 0 0 0 0 0 0 0 0 0 0 0 0 0 0 0 0 0 0 0 0 0 0
0 0 0 0 0 0 0 0 0 -0 0 0 0 0 0 0 0 0 0 -0 -0 -0 -0 -0 -0 -0 0 0 0 0 0 0 0 0 0 0 0 0 0 0 0 0 0 0 0 0 0 0 0
0 0 0 0 0 0 0 0 0 0 0 0 0 0 0 -0 -0 -0 0 0 0 0 0 -0 -0 -0 -0 0 0 0 0 0 0 0 0 0 0 0 0 0 0 0 0 0 0 0 0 0 0
0 0 0 0 0 0 0 0 0 0 0 0 0 0 0 -0 -0 -0 -0 -0 0 0 0 0 0 0 -0 -0 0 0 0 0 0 0 0 0 0 0 0 0 0 0 0 0 0 0 0 0 0
0 0 0 0 0 0 0 0 0 0 0 0 0 0 0 0 -0 -0 -0 -0 -0 -0 -0 0 0 0 0 0 0 0 0 0 0 0 0 0 0 0 0 0 0 0 0 0 0 0 0 0 0
0 0 0 0 0 0 0 0 0 0 0 0 0 0 0 0 0 -0 -0 -0 -0 -0 -0 -0 -0 0 0 0 0 0 0 0 0 0 0 0 0 0 0 0 0 0 0 0 0 0 0 0 0
0 0 0 0 0 0 0 0 0 0 0 0 0 0 0 0 0 -0 -0 -0 -0 -0 -0 -0 -0 -0 -0 0 0 0 0 0 0 0 0 0 0 0 0 0 0 0 0 0 0 0 0 0 0
0 0 0 0 0 0 0 0 0 0 0 0 0 0 0 0 0 0 0 0 -0 -0 -0 -0 0 0 0 0 0 0 0 0 0 0 0 0 0 0 0 0 0 0 0 0 0 0 0 0 0
0 0 0 0 0 0 0 0 0 0 0 0 0 0 0 0 0 0 0 0 -0 -0 -0 -0 -0 0 0 0 0 0 0 0 0 0 0 0 0 0 0 0 0 0 0 0 0 0 0 0 0
0 0 0 0 0 0 0 0 0 0 0 0 0 0 0 0 0 0 0 0 0 0 0 0 -0 -0 0 0 0 0 0 0 0 0 0 0 0 0 0 0 0 0 0 0 0 0 0 0 0
0 0 0 0 0 0 0 0 0 0 0 0 0 0 0 0 0 0 0 0 0 0 0 0 0 0 0 0 0 0 0 0 0 0 0 0 0 0 0 0 0 0 0 0 0 0 0 0 0
0 0 0 0 0 0 0 0 0 0 0 0 0 0 0 0 0 0 0 0 0 0 0 0 0 0 0 0 0 0 0 0 0 0 0 0 0 0 0 0 0 0 0 0 0 0 0 0 0
0 0 0 0 0 0 0 0 0 0 0 0 0 0 0 0 0 0 0 0 0 0 0 0 0 0 0 0 0 0 0 0 0 0 0 0 0 0 0 0 0 0 0 0 0 0 0 0 0
0 0 0 0 0 0 0 0 0 0 0 0 0 0 0 0 0 0 0 0 0 0 0 0 0 0 0 0 0 0 0 0 0 0 0 0 0 0 0 0 0 0 0 0 0 0 0 0 0
0 0 0 0 0 0 0 0 0 0 0 0 0 0 0 0 0 0 0 0 0 0 0 0 0 0 0 0 0 0 0 0 0 0 0 0 0 0 0 0 0 0 0 0 0 0 0 0 0
0 0 0 0 0 0 0 0 0 0 0 0 0 0 0 0 0 0 0 0 0 0 0 0 0 0 0 0 0 0 0 0 0 0 0 0 0 0 0 0 0 0 0 0 0 0 0 0 0
0 0 0 0 0 0 0 0 0 0 0 0 0 0 0 0 0 0 0 0 0 0 0 0 0 0 0 0 0 0 0 0 0 0 0 0 0 0 0 0 0 0 0 0 0 0 0 0 0
0 0 0 0 0 0 0 0 0 0 0 0 0 0 0 0 0 0 0 0 0 0 0 0 0 0 0 0 0 0 0 0 0 0 0 0 0 0 0 0 0 0 0 0 0 0 0 0 0
0 0 0 0 0 0 0 0 0 0 0 0 0 0 0 0 0 0 0 0 0 0 0 0 0 0 0 0 0 0 0 0 0 0 0 0 0 0 0 0 0 0 0 0 0 0 0 0 0
0 0 0 0 0 0 0 0 0 0 0 0 0 0 0 0 0 0 0 0 0 0 0 0 0 0 0 0 0 0 0 0 0 0 0 0 0 0 0 0 0 0 0 0 0 0 0 0 0
0 0 0 0 0 0 0 0 0 0 0 0 0 0 0 0 0 0 0 0 0 0 0 0 0 0 0 0 0 0 0 0 0 0 0 0 0 0 0 0 0 0 0 0 0 0 0 0 0
0 0 0 0 0 0 0 0 0 0 0 0 0 0 0 0 0 0 0 0 0 0 0 0 0 0 0 0 0 0 0 0 0 0 0 0 0 0 0 0 0 0 0 0 0 0 0 0 0
0 0 0 0 0 0 0 0 0 0 0 0 0 0 0 0 0 0 0 0 0 0 0 0 0 0 0 0 0 0 0 0 0 0 0 0 0 0 0 0 0 0 0 0 0 0 0 0 0
0 0 0 0 0 0 0 0 0 0 0 0 0 0 0 0 0 0 0 0 0 0 0 0 0 0 0 0 0 0 0 0 0 0 0 0 0 0 0 0 0 0 0 0 0 0 0 0 0
0 0 0 0 0 0 0 0 0 0 0 0 0 0 0 0 0 0 0 0 0 0 0 0 0 0 0 0 0 0 0 0 0 0 0 0 0 0 0 0 0 0 0 0 0 0 0 0 0
Wind_Speed_500mb
36 19 15 11 9 9 10 8 2 16 15 12 27 13 15 5 2 4 15 37 42 51 49 46 39 36 38 34 31 30 33 35 35 34 30 25 20 16 12 10 11 16 19 18 18 19 22 23 27
35 9 12 4 10 14 9 8 20 18 9 22 22 14 8 5 3 7 26 39 47 49 49 46 41 42 40 36 34 33 34 32 33 29 26 20 15 12 10 14 17 20 22 25 25 23 24 24 27
28 11 7 6 7 15 5 9 10 12 21 20 15 7 6 5 8 16 19 44 51 49 45 45 43 43 38 36 35 34 35 33 30 28 25 19 15 13 15 21 22 21 22 22 23 21 22 22 23
20 2 3 11 18 15 9 6 12 21 12 14 11 12 6 12 14 19 40 45 49 47 45 44 43 42 38 36 34 32 28 22 18 24 25 19 16 15 20 20 24 21 21 20 20 18 18 18 19
20 4 10 11 20 13 10 4 16 25 18 19 16 12 10 16 16 27 42 47 47 46 43 45 44 41 38 36 35 32 29 20 17 14 16 18 19 22 24 20 16 14 19 18 18 16 14 13 13
6 3 11 21 20 9 10 8 17 25 17 14 12 14 9 18 21 35 39 44 45 46 47 47 43 41 39 35 35 32 29 23 16 13 12 18 19 20 16 17 23 18 13 18 15 13 11 9 7
5 9 14 13 11 8 6 7 19 29 19 19 4 12 9 22 30 38 42 40 45 45 48 45 42 39 38 38 37 34 31 27 25 19 18 19 23 22 19 19 28 25 17 13 14 14 11 8 6
4 7 10 10 14 13 2 10 7 27 20 11 12 8 9 30 42 40 43 41 47 46 46 42 40 40 39 40 35 34 33 31 30 27 26 22 24 23 18 16 24 25 21 16 15 14 11 10 8
3 10 15 16 11 7 4 11 6 10 12 13 16 4 7 39 46 50 49 48 49 49 50 44 43 40 37 38 35 33 33 32 32 32 33 33 22 20 19 17 19 19 18 18 17 16 14 14 13
9 13 19 10 11 11 5 11 9 10 18 16 17 18 16 44 49 57 57 58 57 57 55 52 47 44 41 38 36 35 34 32 32 30 31 34 25 24 22 21 21 20 16 14 17 18 17 14 14
15 20 29 27 21 14 9 9 7 15 16 24 30 29 27 48 49 53 53 53 57 57 58 56 51 47 44 41 37 35 34 34 33 31 28 27 26 24 25 23 23 23 22 21 21 20 19 19 18
18 35 35 26 19 10 12 5 8 18 21 10 15 29 33 45 52 52 51 49 53 56 57 57 55 52 49 44 40 36 35 32 30 30 29 27 26 25 24 23 23 24 24 24 24 23 22 21 21
24 34 39 33 20 19 11 20 13 22 23 14 12 25 35 38 43 45 45 45 49 52 54 57 56 55 52 50 46 42 37 34 30 29 29 29 27 25 24 23 24 25 25 23 23 24 23 23 24
17 39 41 40 29 16 16 15 3 24 29 29 27 20 31 40 43 39 45 48 51 49 51 52 56 55 53 52 50 47 42 37 34 33 32 31 30 28 28 26 26 27 27 27 26 26 27 29 29
6 7 19 27 37 17 17 22 20 50 20 21 36 31 31 35 38 50 45 48 48 49 49 50 54 53 54 51 50 49 45 40 39 36 35 35 34 33 32 31 31 30 29 28 29 29 30 31 32
16 13 25 26 23 17 27 41 28 43 31 39 36 28 37 38 43 48 45 47 49 49 51 48 49 52 51 51 47 49 48 45 41 38 36 36 35 33 33 34 34 32 33 33 33 32 33 34 33
15 23 36 22 24 11 30 24 33 21 24 38 46 43 31 40 47 46 47 52 51 53 51 48 46 48 49 48 47 43 44 45 41 38 37 33 31 28 28 29 29 30 33 35 35 36 37 35 35
18 25 13 23 8 17 23 33 16 5 11 24 27 30 41 40 55 39 47 49 49 53 54 49 49 48 47 48 48 46 44 44 43 42 39 35 32 29 28 25 22 27 32 37 35 32 33 34 35
4 13 26 9 3 11 32 28 36 38 27 24 18 23 33 45 53 49 50 51 54 53 56 55 55 55 54 55 55 53 51 44 45 44 42 41 38 35 33 31 30 31 29 27 26 29 31 35 36
19 10 12 6 2 9 14 23 31 26 28 43 48 40 37 37 40 54 47 48 56 59 59 59 59 57 60 61 58 56 52 50 48 45 40 36 35 35 38 36 34 34 36 37 34 36 37 37 31
31 34 18 6 2 3 13 27 28 21 20 28 34 41 42 50 47 38 44 46 45 54 63 64 62 59 60 61 60 57 54 53 50 49 42 38 37 36 37 37 37 37 40 42 42 42 42 43 36
34 18 19 8 3 15 4 14 10 8 16 20 34 36 41 38 47 58 51 46 48 48 52 59 61 60 59 59 62 63 58 57 51 45 37 29 26 30 32 33 34 36 40 44 43 42 44 45 45
21 18 24 25 23 19 30 13 11 3 16 21 4 2 7 19 34 39 48 53 52 53 51 51 57 59 59 58 59 60 60 57 50 50 44 39 34 32 31 31 33 37 39 42 45 39 47 46 48
20 18 11 6 9 17 32 22 15 15 9 5 1 12 12 8 14 17 23 31 44 51 54 56 49 50 55 54 56 58 58 55 58 57 51 47 40 37 37 38 39 39 39 37 38 37 41 41 44
25 29 9 11 12 18 3 20 27 5 9 14 13 8 12 6 3 6 9 13 20 28 39 48 54 52 50 52 52 54 51 50 53 51 50 50 47 46 46 43 43 42 41 40 39 40 42 43 47
29 35 11 17 13 13 10 18 4 3 5 3 7 11 15 15 11 9 9 10 11 17 25 35 47 53 51 50 49 49 48 49 49 49 51 51 46 43 40 40 41 42 43 45 45 45 45 44 40
28 25 7 7 3 4 12 8 8 7 8 9 11 14 18 19 19 21 21 21 22 22 23 26 32 38 40 42 41 40 39 39 42 44 41 41 37 34 31 31 32 34 35 36 37 38 39 38 41
26 28 19 9 13 15 12 9 10 17 11 10 12 15 17 19 23 29 34 35 35 36 35 35 34 33 33 31 31 32 32 30 29 29 27 25 23 22 22 24 25 27 27 27 28 30 32 33 35
23 16 17 13 9 12 14 8 3 14 11 16 15 16 19 19 24 31 38 41 42 41 41 41 40 39 36 33 31 28 28 26 22 20 18 17 17 17 18 19 22 23 25 26 28 30 29 29 30
42 36 32 17 18 11 4 6 5 12 13 19 18 20 21 23 25 30 34 36 36 38 37 37 35 32 31 28 25 22 21 20 17 15 13 11 11 12 14 17 19 20 21 22 23 24 25 26 29
Wind_Direction_500mb
353 355 151 156 223 238 225 216 274 179 176 163 155 181 200 11 204 48 160 167 170 170 166 167 171 164 157 160 151 149 148 145 144 146 153 158 161 171 176 170 146 136 133 134 145 137 116 97 117
351 14 155 232 248 222 201 189 205 188 136 144 157 160 185 165 144 150 152 165 169 171 167 167 168 165 160 164 158 153 147 150 157 157 163 168 173 186 177 152 138 130 132 137 136 139 118 105 108
344 320 242 246 243 234 236 192 189 163 152 163 152 198 173 134 163 160 170 165 166 171 167 169 167 165 166 168 165 160 156 163 163 164 167 169 171 169 162 147 141 136 138 139 137 134 124 114 111
333 259 225 239 231 252 256 83 167 152 189 185 176 162 161 172 156 170 165 167 165 168 169 167 167 166 173 173 170 169 167 169 173 165 167 166 162 155 135 135 143 142 143 144 145 143 132 124 118
332 237 236 236 245 261 247 243 191 178 179 185 190 155 146 184 171 168 168 169 171 169 170 169 170 169 174 176 175 175 172 165 162 169 155 159 159 154 142 151 146 151 154 158 152 151 148 140 131
301 279 234 232 228 252 269 218 185 192 184 175 195 169 153 188 174 168 172 171 175 172 173 172 176 172 173 174 176 178 178 175 175 184 190 176 174 163 176 168 159 165 172 160 164 167 168 163 153
318 274 249 261 261 271 247 173 202 190 180 192 204 197 155 172 170 165 166 169 176 176 176 173 177 174 172 177 178 182 185 183 185 193 196 187 184 184 192 192 173 177 176 157 179 187 191 194 193
25 273 243 229 242 258 163 191 223 191 185 187 178 203 169 179 167 166 166 171 177 178 180 175 178 180 177 181 187 191 195 194 196 196 204 202 199 190 195 198 199 200 207 203 195 203 210 220 234
84 248 240 241 212 246 191 211 172 204 164 172 189 139 170 173 170 170 170 174 178 184 185 183 182 182 182 184 189 195 199 204 208 211 210 217 212 195 210 210 216 215 208 204 204 213 223 231 242
171 244 241 253 253 280 242 232 196 197 190 193 183 184 167 176 178 177 179 180 185 188 190 192 192 191 188 190 192 196 201 205 207 207 207 214 212 203 211 226 225 228 224 215 215 221 224 234 247
179 244 257 263 257 266 272 247 206 220 213 212 203 186 177 181 185 188 190 191 191 192 194 196 196 198 200 200 199 203 206 206 206 211 213 214 216 217 219 225 225 229 236 241 244 251 252 250 253
202 226 256 276 254 237 251 244 236 225 227 242 220 193 197 189 196 198 200 199 198 198 200 200 201 202 203 207 209 210 211 214 217 217 217 217 221 223 224 226 228 229 235 239 247 251 253 256 258
219 226 250 260 258 241 252 248 261 249 234 252 223 202 207 208 205 203 206 205 206 206 206 206 205 207 208 209 211 214 216 219 221 223 224 225 227 227 229 233 238 241 244 247 253 255 254 257 264
219 233 256 259 253 235 231 242 226 255 241 241 239 223 215 213 212 206 208 211 211 212 214 211 210 211 213 214 216 218 218 220 223 227 229 229 232 233 236 236 239 241 244 248 250 252 254 261 268
222 227 231 237 237 232 212 236 227 248 249 252 238 235 235 228 215 220 226 221 215 214 215 216 213 213 215 218 221 221 223 225 228 232 234 235 235 235 239 243 245 248 250 250 253 255 259 264 269
209 235 238 241 200 220 199 253 222 247 236 240 242 236 237 238 233 229 223 224 219 216 218 217 217 216 218 221 224 225 225 226 231 235 237 237 239 240 243 247 248 249 251 252 253 257 263 267 269
204 231 223 247 206 206 203 248 248 218 217 242 242 244 241 239 238 234 228 227 222 221 221 221 218 217 217 221 226 228 227 228 229 229 230 231 233 236 242 249 251 251 250 251 253 256 260 264 272
208 222 207 222 186 229 217 238 225 142 216 248 249 245 240 239 237 238 236 230 226 224 225 225 224 221 218 220 222 225 226 228 228 229 230 232 236 237 243 251 256 260 259 255 258 264 269 274 277
267 216 242 190 137 218 243 248 256 252 248 254 257 250 245 241 238 238 241 237 232 228 227 224 226 222 220 220 221 223 225 227 232 232 233 235 239 243 246 252 255 266 274 275 265 266 269 274 272
224 213 231 269 122 233 263 256 264 257 254 244 247 248 254 251 247 243 241 239 236 234 232 229 227 227 224 225 227 229 230 229 234 236 239 242 244 246 249 250 256 260 270 271 263 265 272 274 279
229 231 221 296 293 256 296 266 244 251 245 245 244 244 245 246 249 245 242 240 239 236 236 234 231 230 229 228 230 230 233 237 237 238 238 239 241 245 251 255 258 260 263 264 262 263 265 271 275
226 214 216 188 308 255 314 278 244 265 273 248 244 239 245 250 253 250 249 246 243 241 238 236 234 234 233 229 232 235 236 239 239 238 235 231 232 241 247 249 255 256 262 266 267 264 264 265 266
237 171 204 225 246 282 238 262 233 298 267 260 271 241 270 263 258 257 254 249 246 238 235 234 234 233 233 232 233 237 237 239 241 239 234 230 225 232 238 244 252 255 257 265 267 261 260 261 265
150 135 104 121 216 251 242 224 230 228 244 292 301 353 348 294 246 248 240 239 239 239 235 232 231 231 231 233 232 234 238 235 238 241 240 238 233 232 238 248 254 254 257 263 268 261 258 260 264
183 171 156 194 199 243 60 214 250 214 302 294 306 14 40 54 194 227 221 229 232 229 224 221 220 223 223 222 222 226 230 232 241 244 246 243 238 239 244 251 253 250 253 255 256 260 260 259 258
199 192 189 203 208 224 148 229 176 324 63 55 69 78 68 69 82 100 125 150 177 189 193 201 205 208 210 213 214 218 221 228 233 237 241 240 239 241 243 246 249 253 256 257 255 253 255 257 260
193 222 227 108 61 210 194 243 238 147 107 99 90 82 67 68 81 92 103 111 119 132 149 166 180 187 189 197 203 207 209 215 224 230 230 232 233 236 238 243 248 253 256 258 258 258 256 253 256
201 186 199 217 204 230 201 237 214 184 162 134 109 99 90 85 86 96 103 106 109 112 117 129 138 150 158 168 178 187 190 195 204 209 211 211 214 221 231 240 249 255 258 260 261 263 264 265 261
204 198 225 220 224 240 238 202 114 169 162 147 135 120 111 98 94 97 103 107 110 113 117 119 123 126 130 134 140 148 154 159 167 179 191 204 217 228 237 245 251 254 256 259 262 264 261 262 263
227 211 198 207 202 233 346 183 133 138 134 140 140 134 122 113 110 110 110 111 114 114 115 116 118 122 124 127 132 142 148 152 160 170 180 194 212 226 236 242 248 252 255 259 261 264 266 269 271
Wind_Speed_850mb
36 19 15 11 9 9 10 8 2 16 15 12 27 13 15 5 2 4 15 37 42 51 49 46 39 36 38 34 31 30 33 35 35 34 30 25 20 16 12 10 11 16 19 18 18 19 22 23 27
35 9 12 4 10 14 9 8 20 18 9 22 22 14 8 5 3 7 26 39 47 49 49 46 41 42 40 36 34 33 34 32 33 29 26 20 15 12 10 14 17 20 22 25 25 23 24 24 27
28 11 7 6 7 15 5 9 10 12 21 20 15 7 6 5 8 16 19 44 51 49 45 45 43 43 38 36 35 34 35 33 30 28 25 19 15 13 15 21 22 21 22 22 23 21 22 22 23
20 2 3 11 18 15 9 6 12 21 12 14 11 12 6 12 14 19 40 45 49 47 45 44 43 42 38 36 34 32 28 22 18 24 25 19 16 15 20 20 24 21 21 20 20 18 18 18 19
20 4 10 11 20 13 10 4 16 25 18 19 16 12 10 16 16 27 42 47 47 46 43 45 44 41 38 36 35 32 29 20 17 14 16 18 19 22 24 20 16 14 19 18 18 16 14 13 13
6 3 11 21 20 9 10 8 17 25 17 14 12 14 9 18 21 35 39 44 45 46 47 47 43 41 39 35 35 32 29 23 16 13 12 18 19 20 16 17 23 18 13 18 15 13 11 9 7
5 9 14 13 11 8 6 7 19 29 19 19 4 12 9 22 30 38 42 40 45 45 48 45 42 39 38 38 37 34 31 27 25 19 18 19 23 22 19 19 28 25 17 13 14 14 11 8 6
4 7 10 10 14 13 2 10 7 27 20 11 12 8 9 30 42 40 43 41 47 46 46 42 40 40 39 40 35 34 33 31 30 27 26 22 24 23 18 16 24 25 21 16 15 14 11 10 8
3 10 15 16 11 7 4 11 6 10 12 13 16 4 7 39 46 50 49 48 49 49 50 44 43 40 37 38 35 33 33 32 32 32 33 33 22 20 19 17 19 19 18 18 17 16 14 14 13
9 13 19 10 11 11 5 11 9 10 18 16 17 18 16 44 49 57 57 58 57 57 55 52 47 44 41 38 36 35 34 32 32 30 31 34 25 24 22 21 21 20 16 14 17 18 17 14 14
15 20 29 27 21 14 9 9 7 15 16 24 30 29 27 48 49 53 53 53 57 57 58 56 51 47 44 41 37 35 34 34 33 31 28 27 26 24 25 23 23 23 22 21 21 20 19 19 18
18 35 35 26 19 10 12 5 8 18 21 10 15 29 33 45 52 52 51 49 53 56 57 57 55 52 49 44 40 36 35 32 30 30 29 27 26 25 24 23 23 24 24 24 24 23 22 21 21
24 34 39 33 20 19 11 20 13 22 23 14 12 25 35 38 43 45 45 45 49 52 54 57 56 55 52 50 46 42 37 34 30 29 29 29 27 25 24 23 24 25 25 23 23 24 23 23 24
17 39 41 40 29 16 16 15 3 24 29 29 27 20 31 40 43 39 45 48 51 49 51 52 56 55 53 52 50 47 42 37 34 33 32 31 30 28 28 26 26 27 27 27 26 26 27 29 29
6 7 19 27 37 17 17 22 20 50 20 21 36 31 31 35 38 50 45 48 48 49 49 50 54 53 54 51 50 49 45 40 39 36 35 35 34 33 32 31 31 30 29 28 29 29 30 31 32
16 13 25 26 23 17 27 41 28 43 31 39 36 28 37 38 43 48 45 47 49 49 51 48 49 52 51 51 47 49 48 45 41 38 36 36 35 33 33 34 34 32 33 33 33 32 33 34 33
15 23 36 22 24 11 30 24 33 21 24 38 46 43 31 40 47 46 47 52 51 53 51 48 46 48 49 48 47 43 44 45 41 38 37 33 31 28 28 29 29 30 33 35 35 36 37 35 35
18 25 13 23 8 17 23 33 16 5 11 24 27 30 41 40 55 39 47 49 49 53 54 49 49 48 47 48 48 46 44 44 43 42 39 35 32 29 28 25 22 27 32 37 35 32 33 34 35
4 13 26 9 3 11 32 28 36 38 27 24 18 23 33 45 53 49 50 51 54 53 56 55 55 55 54 55 55 53 51 44 45 44 42 41 38 35 33 31 30 31 29 27 26 29 31 35 36
19 10 12 6 2 9 14 23 31 26 28 43 48 40 37 37 40 54 47 48 56 59 59 59 59 57 60 61 58 56 52 50 48 45 40 36 35 35 38 36 34 34 36 37 34 36 37 37 31
31 34 18 6 2 3 13 27 28 21 20 28 34 41 42 50 47 38 44 46 45 54 63 64 62 59 60 61 60 57 54 53 50 49 42 38 37 36 37 37 37 37 40 42 42 42 42 43 36
34 18 19 8 3 15 4 14 10 8 16 20 34 36 41 38 47 58 51 46 48 48 52 59 61 60 59 59 62 63 58 57 51 45 37 29 26 30 32 33 34 36 40 44 43 42 44 45 45
21 18 24 25 23 19 30 13 11 3 16 21 4 2 7 19 34 39 48 53 52 53 51 51 57 59 59 58 59 60 60 57 50 50 44 39 34 32 31 31 33 37 39 42 45 39 47 46 48
20 18 11 6 9 17 32 22 15 15 9 5 1 12 12 8 14 17 23 31 44 51 54 56 49 50 55 54 56 58 58 55 58 57 51 47 40 37 37 38 39 39 39 37 38 37 41 41 44
25 29 9 11 12 18 3 20 27 5 9 14 13 8 12 6 3 6 9 13 20 28 39 48 54 52 50 52 52 54 51 50 53 51 50 50 47 46 46 43 43 42 41 40 39 40 42 43 47
29 35 11 17 13 13 10 18 4 3 5 3 7 11 15 15 11 9 9 10 11 17 25 35 47 53 51 50 49 49 48 49 49 49 51 51 46 43 40 40 41 42 43 45 45 45 45 44 40
28 25 7 7 3 4 12 8 8 7 8 9 11 14 18 19 19 21 21 21 22 22 23 26 32 38 40 42 41 40 39 39 42 44 41 41 37 34 31 31 32 34 35 36 37 38 39 38 41
26 28 19 9 13 15 12 9 10 17 11 10 12 15 17 19 23 29 34 35 35 36 35 35 34 33 33 31 31 32 32 30 29 29 27 25 23 22 22 24 25 27 27 27 28 30 32 33 35
23 16 17 13 9 12 14 8 3 14 11 16 15 16 19 19 24 31 38 41 42 41 41 41 40 39 36 33 31 28 28 26 22 20 18 17 17 17 18 19 22 23 25 26 28 30 29 29 30
42 36 32 17 18 11 4 6 5 12 13 19 18 20 21 23 25 30 34 36 36 38 37 37 35 32 31 28 25 22 21 20 17 15 13 11 11 12 14 17 19 20 21 22 23 24 25 26 29
Wind_Direction_850mb
353 355 151 156 223 238 225 216 274 179 176 163 155 181 200 11 204 48 160 167 170 170 166 167 171 164 157 160 151 149 148 145 144 146 153 158 161 171 176 170 146 136 133 134 145 137 116 97 117
351 14 155 232 248 222 201 189 205 188 136 144 157 160 185 165 144 150 152 165 169 171 167 167 168 165 160 164 158 153 147 150 157 157 163 168 173 186 177 152 138 130 132 137 136 139 118 105 108
344 320 242 246 243 234 236 192 189 163 152 163 152 198 173 134 163 160 170 165 166 171 167 169 167 165 166 168 165 160 156 163 163 164 167 169 171 169 162 147 141 136 138 139 137 134 124 114 111
333 259 225 239 231 252 256 83 167 152 189 185 176 162 161 172 156 170 165 167 165 168 169 167 167 166 173 173 170 169 167 169 173 165 167 166 162 155 135 135 143 142 143 144 145 143 132 124 118
332 237 236 236 245 261 247 243 191 178 179 185 190 155 146 184 171 168 168 169 171 169 170 169 170 169 174 176 175 175 172 165 162 169 155 159 159 154 142 151 146 151 154 158 152 151 148 140 131
301 279 234 232 228 252 269 218 185 192 184 175 195 169 153 188 174 168 172 171 175 172 173 172 176 172 173 174 176 178 178 175 175 184 190 176 174 163 176 168 159 165 172 160 164 167 168 163 153
318 274 249 261 261 271 247 173 202 190 180 192 204 197 155 172 170 165 166 169 176 176 176 173 177 174 172 177 178 182 185 183 185 193 196 187 184 184 192 192 173 177 176 157 179 187 191 194 193
25 273 243 229 242 258 163 191 223 191 185 187 178 203 169 179 167 166 166 171 177 178 180 175 178 180 177 181 187 191 195 194 196 196 204 202 199 190 195 198 199 200 207 203 195 203 210 220 234
84 248 240 241 212 246 191 211 172 204 164 172 189 139 170 173 170 170 170 174 178 184 185 183 182 182 182 184 189 195 199 204 208 211 210 217 212 195 210 210 216 215 208 204 204 213 223 231 242
171 244 241 253 253 280 242 232 196 197 190 193 183 184 167 176 178 177 179 180 185 188 190 192 192 191 188 190 192 196 201 205 207 207 207 214 212 203 211 226 225 228 224 215 215 221 224 234 247
179 244 257 263 257 266 272 247 206 220 213 212 203 186 177 181 185 188 190 191 191 192 194 196 196 198 200 200 199 203 206 206 206 211 213 214 216 217 219 225 225 229 236 241 244 251 252 250 253
202 226 256 276 254 237 251 244 236 225 227 242 220 193 197 189 196 198 200 199 198 198 200 200 201 202 203 207 209 210 211 214 217 217 217 217 221 223 224 226 228 229 235 239 247 251 253 256 258
219 226 250 260 258 241 252 248 261 249 234 252 223 202 207 208 205 203 206 205 206 206 206 206 205 207 208 209 211 214 216 219 221 223 224 225 227 227 229 233 238 241 244 247 253 255 254 257 264
219 233 256 259 253 235 231 242 226 255 241 241 239 223 215 213 212 206 208 211 211 212 214 211 210 211 213 214 216 218 218 220 223 227 229 229 232 233 236 236 239 241 244 248 250 252 254 261 268
222 227 231 237 237 232 212 236 227 248 249 252 238 235 235 228 215 220 226 221 215 214 215 216 213 213 215 218 221 221 223 225 228 232 234 235 235 235 239 243 245 248 250 250 253 255 259 264 269
209 235 238 241 200 220 199 253 222 247 236 240 242 236 237 238 233 229 223 224 219 216 218 217 217 216 218 221 224 225 225 226 231 235 237 237 239 240 243 247 248 249 251 252 253 257 263 267 269
204 231 223 247 206 206 203 248 248 218 217 242 242 244 241 239 238 234 228 227 222 221 221 221 218 217 217 221 226 228 227 228 229 229 230 231 233 236 242 249 251 251 250 251 253 256 260 264 272
208 222 207 222 186 229 217 238 225 142 216 248 249 245 240 239 237 238 236 230 226 224 225 225 224 221 218 220 222 225 226 228 228 229 230 232 236 237 243 251 256 260 259 255 258 264 269 274 277
267 216 242 190 137 218 243 248 256 252 248 254 257 250 245 241 238 238 241 237 232 228 227 224 226 222 220 220 221 223 225 227 232 232 233 235 239 243 246 252 255 266 274 275 265 266 269 274 272
224 213 231 269 122 233 263 256 264 257 254 244 247 248 254 251 247 243 241 239 236 234 232 229 227 227 224 225 227 229 230 229 234 236 239 242 244 246 249 250 256 260 270 271 263 265 272 274 279
229 231 221 296 293 256 296 266 244 251 245 245 244 244 245 246 249 245 242 240 239 236 236 234 231 230 229 228 230 230 233 237 237 238 238 239 241 245 251 255 258 260 263 264 262 263 265 271 275
226 214 216 188 308 255 314 278 244 265 273 248 244 239 245 250 253 250 249 246 243 241 238 236 234 234 233 229 232 235 236 239 239 238 235 231 232 241 247 249 255 256 262 266 267 264 264 265 266
237 171 204 225 246 282 238 262 233 298 267 260 271 241 270 263 258 257 254 249 246 238 235 234 234 233 233 232 233 237 237 239 241 239 234 230 225 232 238 244 252 255 257 265 267 261 260 261 265
150 135 104 121 216 251 242 224 230 228 244 292 301 353 348 294 246 248 240 239 239 239 235 232 231 231 231 233 232 234 238 235 238 241 240 238 233 232 238 248 254 254 257 263 268 261 258 260 264
183 171 156 194 199 243 60 214 250 214 302 294 306 14 40 54 194 227 221 229 232 229 224 221 220 223 223 222 222 226 230 232 241 244 246 243 238 239 244 251 253 250 253 255 256 260 260 259 258
199 192 189 203 208 224 148 229 176 324 63 55 69 78 68 69 82 100 125 150 177 189 193 201 205 208 210 213 214 218 221 228 233 237 241 240 239 241 243 246 249 253 256 257 255 253 255 257 260
193 222 227 108 61 210 194 243 238 147 107 99 90 82 67 68 81 92 103 111 119 132 149 166 180 187 189 197 203 207 209 215 224 230 230 232 233 236 238 243 248 253 256 258 258 258 256 253 256
201 186 199 217 204 230 201 237 214 184 162 134 109 99 90 85 86 96 103 106 109 112 117 129 138 150 158 168 178 187 190 195 204 209 211 211 214 221 231 240 249 255 258 260 261 263 264 265 261
204 198 225 220 224 240 238 202 114 169 162 147 135 120 111 98 94 97 103 107 110 113 117 119 123 126 130 134 140 148 154 159 167 179 191 204 217 228 237 245 251 254 256 259 262 264 261 262 263
227 211 198 207 202 233 346 183 133 138 134 140 140 134 122 113 110 110 110 111 114 114 115 116 118 122 124 127 132 142 148 152 160 170 180 194 212 226 236 242 248 252 255 259 261 264 266 269 271